Flag for Russia Weather past 2 weeks in Kaliningrad, Russia

Now
55 °F

Broken clouds.


Feels Like: 55 °F
Forecast: 49 / 67 °F
Wind: 1 mph from Southwest

Location: Kaliningrad/Khrabrovo Airport

Current Time: Aug 23, 2014 at 11:30:50 PM

Latest Report: Aug 23, 2014 at 10:30 PM


Visibility: N/A

Pressure: 29.86 "Hg

Humidity: 88%

Dew point: 52 °F

Location of KaliningradLocation

Historic Weather in Kaliningrad — Graph

°F

Kaliningrad temperature yesterday

Maximum temperature yesterday: 68 °F (at 2:00 PM)
Minimum temperature yesterday: 48 °F (at 3:00 AM)
Average temperature yesterday: 59 °F

Past Weeks' High & Low Weather Summary

 TemperatureHumidityPressure
High79 °F (Aug 11, 10:00 AM)94% (Aug 11, 12:30 AM)29.98 "Hg (Aug 11, 12:30 AM)
Low48 °F (Aug 22, 3:00 AM)25% (Aug 12, 4:00 PM)29.45 "Hg (Aug 14, 11:00 AM)
Average63 °F71%29.81 "Hg
* Reported Aug 8 10:00 PM — Aug 23 10:00 PM, Kaliningrad, Weather by CustomWeather, © 2014

Note: Actual official high and low records may vary slightly from our data, if they occured in-between our weather recording intervals... More about our weather records

Advertising

Kaliningrad weather history for previous 24 hours

 ConditionsComfort  
Time TempWeatherWind HumidityBarometerVisibility
10:00 PM
Aug 23
57 °FBroken clouds.No wind82%29.86 "HgN/A
9:30 PM57 °FBroken clouds.No wind82%29.86 "HgN/A
9:00 PM59 °FBroken clouds.1 mph77%29.86 "HgN/A
8:30 PM61 °FPartly sunny.1 mph72%29.86 "HgN/A
8:00 PM61 °FPartly sunny.1 mph72%29.86 "HgN/A
7:30 PM61 °FBroken clouds.6 mph72%29.83 "HgN/A
7:00 PM63 °FBroken clouds.8 mph73%29.83 "HgN/A
6:30 PM63 °FPartly sunny.6 mph73%29.83 "HgN/A
6:00 PM64 °FPartly sunny.6 mph64%29.83 "HgN/A
5:30 PM64 °FBroken clouds.6 mph60%29.83 "HgN/A
5:00 PM64 °FBroken clouds.3 mph64%29.83 "HgN/A
4:30 PM63 °FThundershowers. Partly sunny.1 mph64%29.83 "HgN/A
4:00 PM57 °FThunderstorms. Broken clouds.13 mph82%29.86 "Hg2 mi
3:30 PM66 °FThundershowers. Partly sunny.8 mph46%29.83 "HgN/A
3:00 PM70 °FMore clouds than sun.10 mph40%29.83 "HgN/A
2:30 PM68 °FMore clouds than sun.10 mph56%29.83 "HgN/A
2:00 PM66 °FMore clouds than sun.8 mph56%29.83 "HgN/A
1:30 PM66 °FMore clouds than sun.10 mph56%29.83 "HgN/A
1:00 PM64 °FBroken clouds.10 mph64%29.83 "HgN/A
12:30 PM66 °FBroken clouds.13 mph56%29.83 "HgN/A
12:00 PM64 °FBroken clouds.13 mph60%29.83 "HgN/A
11:30 AM64 °FOvercast.10 mph60%29.83 "HgN/A
11:00 AM63 °FPartly sunny.10 mph68%29.83 "HgN/A
10:30 AM63 °FPartly sunny.8 mph68%29.83 "HgN/A
10:00 AM61 °FPartly sunny.10 mph68%29.83 "HgN/A
9:30 AM57 °FBroken clouds.8 mph77%29.83 "HgN/A
9:00 AM57 °FMore clouds than sun.10 mph77%29.86 "HgN/A
8:30 AM55 °FSunny.8 mph82%29.86 "Hg10 mi
8:00 AM55 °FPassing clouds.8 mph82%29.86 "HgN/A
7:30 AM55 °FClear.6 mph77%29.86 "Hg10 mi
7:00 AM55 °FClear.6 mph77%29.83 "Hg10 mi
6:30 AM54 °FPassing clouds.6 mph88%29.86 "HgN/A
6:00 AM55 °FOvercast.6 mph77%29.86 "HgN/A
5:30 AM55 °FSprinkles. Mostly cloudy.10 mph77%29.86 "Hg4 mi
5:00 AM55 °FClear.6 mph77%29.86 "Hg10 mi
4:00 AM55 °FClear.6 mph77%29.86 "Hg10 mi
3:00 AM55 °FClear.6 mph77%29.89 "Hg10 mi
2:00 AM54 °FClear.3 mph77%29.89 "Hg10 mi
1:30 AM54 °FClear.6 mph77%29.89 "Hg10 mi
1:00 AM55 °FClear.8 mph72%29.89 "Hg10 mi
12:30 AM55 °FClear.8 mph72%29.89 "Hg10 mi
12:00 AM55 °FClear.6 mph67%29.89 "Hg10 mi
11:30 PM
Aug 22
57 °FClear.8 mph63%29.89 "Hg10 mi
11:00 PM59 °FClear.8 mph59%29.92 "Hg10 mi
Weather by CustomWeather, © 2014

See weather overviewHow to use our weather pages